Location: Wanzleben
(52.0609°N, 11.4408°E)
Time: 03:28:22
(UTC+00:00)

Cosmos 1437 - Pass Details

Date: 18 September 2020
Orbit: 366 x 369 km, 81.2° (Epoch: 22 October)

Event Time Altitude Azimuth Distance (km) Brightness Sun altitude
Rises 18:08:34 0° 345° (NNW) 2,257 6.9 -8.0°
Reaches altitude 10° 18:10:35 10° 342° (NNW) 1,400 5.8 -8.3°
Maximum altitude 18:13:35 67° 260° (W) 416 3.0 -8.8°
Drops below altitude 10° 18:16:34 10° 177° (S) 1,386 5.2 -9.2°
Sets 18:18:33 0° 175° (S) 2,231 6.2 -9.5°
